This demonstration page uses our WeatherBlox Daily Observations layout. Learn more.

Left ArrowRight Arrow

34.02893, -84.19858

Hourly Observations for May 8, 2022

Temp ( °F °C ) Dew Point ( °F °C ) Humidity (%) Winds ( mph kmh ) Pressure ( in mb ) Visibility ( mi km ) Precip ( " mm )
12:37 am 00:37 Partly Cloudy 57 13.9 52 11.1 83 83 NW 8 13 29.83 1010 10 16 0.00 0.00
12:53 am 00:53 Mostly Clear 56 13.3 52 11.1 87 87 NNW 6 9 29.81 1009 10 16 0.00 0.00
1:53 am 01:53 Clear 56 13.3 52 11.1 87 87 NW 7 11 29.80 1009 10 16 0.00 0.00
2:53 am 02:53 Clear 55 12.8 52 11.1 90 90 NW 8 13 29.80 1009 10 16 0.00 0.00
3:53 am 03:53 Clear 54 12.2 51 10.6 90 90 NW 6 9 29.79 1009 10 16 0.00 0.00
4:53 am 04:53 Clear 53 11.7 50 10 89 89 WNW 3 6 29.80 1009 10 16 0.00 0.00
5:53 am 05:53 Clear 52 11.1 50 10 93 93 N 3 6 29.81 1010 10 16 0.00 0.00
6:53 am 06:53 Sunny 51 10.6 50 10 96 96 NNW 3 6 29.84 1011 10 16 0.00 0.00
7:53 am 07:53 Partly Cloudy 54 12.2 52 11.1 93 93 N 6 9 29.87 1012 10 16 0.00 0.00
8:01 am 08:01 Mostly Cloudy 54 12.2 52 11.1 93 93 N 3 6 29.88 1012 10 16 0.00 0.00
8:44 am 08:44 Cloudy 56 13.3 52 11.1 87 87 Calm 29.89 1012 10 16 0.00 0.00
8:53 am 08:53 Cloudy with Mist and Fog 56 13.3 53 11.7 90 90 undefined N/A 29.88 1012 5 8 0.00 0.00
9:06 am 09:06 Cloudy with Mist and Fog 55 12.8 54 12.2 96 96 ENE 6 9 29.90 1013 2 3 0.00 0.00
9:19 am 09:19 Cloudy with Mist and Fog 56 13.3 54 12.2 93 93 Calm 29.91 1013 5 8 0.00 0.00
9:53 am 09:53 Cloudy 57 13.9 54 12.2 90 90 VRB 3 6 29.91 1013 10 16 0.00 0.00
10:39 am 10:39 Cloudy 59 15 54 12.2 83 83 VRB 3 6 29.92 1013 10 16 0.00 0.00
10:53 am 10:53 Cloudy 59 15 54 12.2 83 83 VRB 3 6 29.93 1013 10 16 0.00 0.00
11:53 am 11:53 Cloudy 58 14.4 53 11.7 84 84 Calm 29.95 1014 10 16 0.00 0.00
12:43 pm 12:43 Cloudy 61 16.1 53 11.7 75 75 Calm 29.94 1014 10 16 0.00 0.00
12:53 pm 12:53 Cloudy 61 16.1 53 11.7 75 75 Calm 29.93 1014 10 16 0.00 0.00
1:53 pm 13:53 Cloudy 65 18.3 54 12.2 68 68 NE 5 7 29.92 1013 10 16 0.00 0.00
2:53 pm 14:53 Cloudy 68 20 55 12.8 63 63 SSE 7 11 29.91 1013 10 16 0.00 0.00
3:16 pm 15:16 Cloudy 67 19.4 54 12.2 63 63 SSE 3 6 29.91 1013 10 16 0.00 0.00
3:53 pm 15:53 Cloudy 68 20 54 12.2 61 61 VRB 3 6 29.91 1013 10 16 0.00 0.00
4:53 pm 16:53 Cloudy 69 20.6 53 11.7 57 57 Calm 29.90 1013 10 16 0.00 0.00
5:53 pm 17:53 Mostly Cloudy 69 20.6 54 12.2 59 59 Calm 29.91 1013 10 16 0.00 0.00
6:53 pm 18:53 Mostly Cloudy 69 20.6 53 11.7 57 57 SE 5 7 29.92 1013 10 16 0.00 0.00
7:53 pm 19:53 Partly Cloudy 66 18.9 55 12.8 68 68 Calm 29.94 1014 10 16 0.00 0.00
8:53 pm 20:53 Mostly Clear 62 16.7 54 12.2 75 75 Calm 29.96 1014 10 16 0.00 0.00
9:53 pm 21:53 Clear 61 16.1 54 12.2 78 78 Calm 29.98 1015 10 16 0.00 0.00
10:53 pm 22:53 Mostly Clear 59 15 54 12.2 83 83 Calm 30.01 1016 10 16 0.00 0.00
11:53 pm 23:53 Clear 59 15 53 11.7 81 81 Calm 30.02 1017 10 16 0.00 0.00

Powered by AerisWeather